Location: Schommer Observatory
(40.5200°N, 74.4500°W)
Time: 07:44:05
(UTC-04:00)

Envisat - Pass Details

Date: 18 May 2018
Orbit: 764 x 766 km, 98.2° (Epoch: 26 May)

Event Time Altitude Azimuth Distance (km) Brightness Sun altitude
Rises 21:43:25 0° 216° (SW) 3,219 6.2 -15.2°
Reaches altitude 10° 21:47:07 10° 244° (WSW) 2,299 5.7 -15.7°
Maximum altitude 21:49:19 13° 271° (W) 2,114 5.9 -16.0°
Drops below altitude 10° 21:51:32 10° 297° (WNW) 2,306 6.6 -16.3°
Sets 21:55:17 0° 325° (NW) 3,238 7.9 -16.8°
